Location: B?jaj?g
(11.7167°N, 92.6667°E)
Time: 13:11:50
(UTC+00:00)

USA 116 - Pass Details

Date: 18 September 2020
Orbit: 405 x 834 km, 97.9° (Epoch: 18 November)

Event Time Altitude Azimuth Distance (km) Brightness Sun altitude
Rises 11:59:21 0° 19° (NNE) 2,632 7.0 -3.6°
Reaches altitude 10° 12:01:22 10° 24° (NNE) 1,804 6.1 -4.1°
Maximum altitude 12:05:12 53° 102° (ESE) 728 4.0 -5.0°
Drops below altitude 10° 12:09:31 10° 179° (S) 2,042 6.6 -6.1°
Sets 12:11:55 0° 184° (S) 3,021 7.5 -6.7°
